LTBS

Details ICAO LTBS (DLM)
Name DALAMAN
Region Turkey
Timezone Europe/Istanbul (UTC+3.0)
Plans Departing 374
Arriving 511
Stats Elevation 20 ft / 6 m (AMSL)
Location 36.713200° 28.792500°
Runways 1
Magnetic Variation 4.990° E
Sunrise 2019-02-16 04:54:02 UTC / 2019-02-16 07:54:02 Local
Sunset 2019-02-16 15:46:42 UTC / 2019-02-16 18:46:42 Local
Advertisement - Login to hide

Runways

ID Width Length Bearing (true/mag) Surface Threshold Overrun Markings Lighting
01 148 ft / 45 m 9,851 ft / 3,003 m 15.24° / 10.25° CONCRETE 0 ft / 0 m 197 ft / 60 m APP EDGE THRESHOLD ALSF-I
19 148 ft / 45 m 9,851 ft / 3,003 m 195.25° / 190.26° CONCRETE 0 ft / 0 m 197 ft / 60 m APP EDGE THRESHOLD ALSF-I

Map

Weather


0- 5 10 15 20 25 30 35+ Temperature / °C

Clouds and Precipitation
Forecast for 2019-02-16 00:00 UTC. Updated 6 hours ago

Ground ~20,000 ft ~40,000 ft Winds

METAR

LTBS 160250Z 08003KT 050V110 9999 SCT030 BKN100 08/07 Q1014 NOSIG RMK RWY19 VRB01KT

TAF

Not found

Frequencies

Recorded 127.35 MHz ATIS
Ground 121.90 MHz
Tower 118.50 MHz
Approach 119.22 MHz
Approach 129.50 MHz
Tower 128.90 MHz
Warning: Do not use this data for real-world aviation or navigation. No guarantee of current accuracy is given.